| time (UTC) | temp F | wind direction | speed MPH | gust MPH | rain 1hr in | rain 24hr in | rain mn in | humidity % | barometer mb |
| 20260507014325 | 70 | 295 | 3.0 | 9.0 | 0.00 | 0.00 | 0.00 | 59 | 1015.9 |
| 20260507013340 | 71 | 335 | 1.0 | 11.0 | 0.00 | 0.00 | 0.00 | 58 | 1015.9 |
| 20260507012334 | 73 | 332 | 5.0 | 11.0 | 0.00 | 0.00 | 0.00 | 54 | 1015.6 |
| 20260507011324 | 75 | 338 | 3.0 | 9.0 | 0.00 | 0.00 | 0.00 | 54 | 1015.6 |
| 20260507010317 | 75 | 331 | 2.0 | 9.0 | 0.00 | 0.00 | 0.00 | 51 | 1015.6 |
| 20260507005331 | 76 | 345 | 2.0 | 9.0 | 0.00 | 0.00 | 0.00 | 53 | 1015.6 |
| 20260507004324 | 76 | 280 | 3.0 | 7.0 | 0.00 | 0.00 | 0.00 | 50 | 1015.6 |
| 20260507003335 | 76 | 302 | 3.0 | 10.0 | 0.00 | 0.00 | 0.00 | 51 | 1015.6 |
| 20260507002345 | 76 | 300 | 3.0 | 8.0 | 0.00 | 0.00 | 0.00 | 48 | 1015.5 |
| 20260507001320 | 75 | 347 | 0.0 | 6.0 | 0.00 | 0.00 | 0.00 | 53 | 1015.5 |
| 20260507000317 | 75 | 15 | 2.0 | 8.0 | 0.00 | 0.00 | 0.00 | 54 | 1015.5 |
| 20260506235330 | 75 | 338 | 2.0 | 9.0 | 0.00 | 0.00 | 0.00 | 55 | 1015.6 |
| 20260506234324 | 75 | 339 | 2.0 | 8.0 | 0.00 | 0.00 | 0.00 | 56 | 1015.6 |
| 20260506233335 | 75 | 5 | 0.0 | 7.0 | 0.00 | 0.00 | 0.00 | 55 | 1015.6 |
| 20260506232325 | 75 | 40 | 2.0 | 5.0 | 0.00 | 0.00 | 0.00 | 55 | 1015.6 |
| 20260506231337 | 75 | 349 | 2.0 | 7.0 | 0.00 | 0.00 | 0.00 | 55 | 1015.8 |
| 20260506230333 | 74 | 343 | 0.0 | 8.0 | 0.00 | 0.00 | 0.00 | 57 | 1015.8 |
| 20260506225345 | 74 | 306 | 0.0 | 8.0 | 0.00 | 0.00 | 0.00 | 59 | 1016.0 |
| 20260506224335 | 74 | 66 | 1.0 | 7.0 | 0.00 | 0.00 | 0.00 | 61 | 1016.2 |
| 20260506223327 | 73 | 298 | 3.0 | 9.0 | 0.00 | 0.00 | 0.00 | 60 | 1016.2 |
| 20260506222339 | 73 | 360 | 1.0 | 5.0 | 0.00 | 0.00 | 0.00 | 59 | 1016.3 |
| 20260506221351 | 73 | 5 | 4.0 | 7.0 | 0.00 | 0.00 | 0.00 | 61 | 1016.5 |
| 20260506220342 | 72 | 14 | 0.0 | 7.0 | 0.00 | 0.00 | 0.00 | 63 | 1016.5 |
| 20260506215319 | 71 | 46 | 1.0 | 6.0 | 0.00 | 0.00 | 0.00 | 64 | 1016.6 |
| 20260506214353 | 71 | 336 | 2.0 | 7.0 | 0.00 | 0.00 | 0.00 | 66 | 1016.7 |
| 20260506213329 | 70 | 355 | 1.0 | 8.0 | 0.00 | 0.00 | 0.00 | 67 | 1016.7 |
| 20260506212320 | 70 | 130 | 0.0 | 4.0 | 0.00 | 0.00 | 0.00 | 68 | 1016.9 |
| 20260506211335 | 69 | 50 | 1.0 | 6.0 | 0.00 | 0.00 | 0.00 | 67 | 1017.1 |
| 20260506210330 | 68 | 54 | 1.0 | 5.0 | 0.00 | 0.00 | 0.00 | 68 | 1017.1 |
| 20260506205320 | 68 | 360 | 1.0 | 5.0 | 0.00 | 0.00 | 0.00 | 68 | 1017.1 |
| 20260506204332 | 68 | 302 | 2.0 | 7.0 | 0.00 | 0.00 | 0.00 | 68 | 1017.2 |
| 20260506203324 | 67 | 330 | 1.0 | 7.0 | 0.00 | 0.00 | 0.00 | 70 | 1017.2 |
| 20260506202333 | 66 | 315 | 1.0 | 8.0 | 0.00 | 0.00 | 0.00 | 74 | 1017.3 |
| 20260506201328 | 65 | 302 | 1.0 | 6.0 | 0.00 | 0.00 | 0.00 | 73 | 1017.4 |
| 20260506200329 | 64 | 314 | 2.0 | 6.0 | 0.00 | 0.00 | 0.00 | 71 | 1017.4 |
| 20260506195322 | 64 | 307 | 1.0 | 6.0 | 0.00 | 0.00 | 0.00 | 74 | 1017.6 |
| 20260506194334 | 63 | 313 | 1.0 | 5.0 | 0.00 | 0.00 | 0.00 | 75 | 1017.7 |
| 20260506193346 | 62 | 202 | 0.0 | 3.0 | 0.00 | 0.00 | 0.00 | 76 | 1017.7 |
| 20260506192336 | 62 | 210 | 0.0 | 3.0 | 0.00 | 0.00 | 0.00 | 75 | 1017.7 |
| 20260506191327 | 61 | 216 | 0.0 | 3.0 | 0.00 | 0.00 | 0.00 | 77 | 1017.7 |
| 20260506190322 | 61 | 165 | 0.0 | 4.0 | 0.00 | 0.00 | 0.00 | 78 | 1017.7 |
| 20260506185333 | 61 | 230 | 0.0 | 0.0 | 0.00 | 0.00 | 0.00 | 77 | 1017.9 |
| 20260506184328 | 61 | 223 | 0.0 | 0.0 | 0.00 | 0.00 | 0.00 | 77 | 1017.7 |
| 20260506183328 | 60 | 205 | 0.0 | 1.0 | 0.00 | 0.00 | 0.00 | 78 | 1017.7 |
| 20260506182341 | 60 | 225 | 0.0 | 2.0 | 0.00 | 0.00 | 0.00 | 78 | 1018.0 |
| 20260506181331 | 59 | 139 | 0.0 | 2.0 | 0.00 | 0.00 | 0.00 | 81 | 1018.2 |
| 20260506180325 | 59 | 136 | 0.0 | 0.0 | 0.00 | 0.00 | 0.00 | 80 | 1018.2 |
| 20260506175319 | 59 | 136 | 0.0 | 0.0 | 0.00 | 0.00 | 0.00 | 79 | 1018.0 |
| 20260506174346 | 59 | 209 | 0.0 | 0.0 | 0.00 | 0.00 | 0.00 | 80 | 1018.1 |
| 20260506173320 | 58 | 327 | 0.0 | 0.0 | 0.00 | 0.00 | 0.00 | 83 | 1018.1 |
| 20260506172331 | 58 | 327 | 0.0 | 0.0 | 0.00 | 0.00 | 0.00 | 84 | 1018.0 |
| 20260506171345 | 58 | 328 | 0.0 | 3.0 | 0.00 | 0.00 | 0.00 | 85 | 1018.2 |
| 20260506170317 | 57 | 338 | 0.0 | 2.0 | 0.00 | 0.00 | 0.00 | 86 | 1018.2 |
| 20260506165332 | 57 | 345 | 0.0 | 4.0 | 0.00 | 0.00 | 0.00 | 88 | 1018.2 |
| 20260506164324 | 56 | 307 | 0.0 | 4.0 | 0.00 | 0.00 | 0.00 | 89 | 1018.2 |
| 20260506163333 | 56 | 302 | 0.0 | 1.0 | 0.00 | 0.00 | 0.00 | 89 | 1018.2 |
| 20260506162325 | 56 | 310 | 0.0 | 4.0 | 0.00 | 0.00 | 0.00 | 90 | 1017.9 |
| 20260506161319 | 56 | 282 | 0.0 | 1.0 | 0.00 | 0.00 | 0.00 | 92 | 1017.9 |
| 20260506160330 | 55 | 281 | 0.0 | 4.0 | 0.00 | 0.00 | 0.00 | 92 | 1017.9 |
| 20260506155321 | 55 | 19 | 0.0 | 3.0 | 0.00 | 0.00 | 0.00 | 92 | 1017.7 |
| 20260506154312 | 55 | 20 | 0.0 | 0.0 | 0.00 | 0.00 | 0.00 | 92 | 1017.7 |
| 20260506153331 | 55 | 20 | 0.0 | 0.0 | 0.00 | 0.00 | 0.00 | 93 | 1017.7 |
| 20260506152323 | 54 | 20 | 0.0 | 0.0 | 0.00 | 0.00 | 0.00 | 93 | 1017.7 |
| 20260506151320 | 54 | 20 | 0.0 | 0.0 | 0.00 | 0.00 | 0.00 | 93 | 1017.7 |
| 20260506150356 | 54 | 20 | 0.0 | 0.0 | 0.00 | 0.00 | 0.00 | 94 | 1017.7 |
| 20260506145324 | 54 | 20 | 0.0 | 1.0 | 0.00 | 0.00 | 0.00 | 94 | 1017.6 |
| 20260506144317 | 54 | 323 | 0.0 | 0.0 | 0.00 | 0.00 | 0.00 | 94 | 1017.6 |
| 20260506143337 | 54 | 323 | 0.0 | 0.0 | 0.00 | 0.00 | 0.00 | 93 | 1017.6 |
| 20260506142328 | 54 | 321 | 0.0 | 0.0 | 0.00 | 0.00 | 0.00 | 94 | 1017.4 |
| 20260506141327 | 53 | 321 | 0.0 | 0.0 | 0.00 | 0.00 | 0.00 | 94 | 1017.2 |
| 20260506140318 | 53 | 321 | 0.0 | 0.0 | 0.00 | 0.00 | 0.00 | 94 | 1017.2 |
| 20260506135329 | 53 | 321 | 0.0 | 0.0 | 0.00 | 0.00 | 0.00 | 94 | 1017.2 |
| 20260506134345 | 53 | 321 | 0.0 | 0.0 | 0.00 | 0.00 | 0.00 | 95 | 1017.1 |
| 20260506133319 | 53 | 321 | 0.0 | 0.0 | 0.00 | 0.00 | 0.00 | 95 | 1017.1 |
| 20260506132349 | 53 | 321 | 0.0 | 0.0 | 0.00 | 0.00 | 0.00 | 96 | 1016.7 |
| 20260506131323 | 53 | 321 | 0.0 | 0.0 | 0.00 | 0.00 | 0.00 | 96 | 1016.6 |
| 20260506130323 | 53 | 321 | 0.0 | 0.0 | 0.00 | 0.00 | 0.00 | 97 | 1016.6 |
| 20260506125319 | 52 | 321 | 0.0 | 0.0 | 0.00 | 0.00 | 0.00 | 97 | 1016.6 |
| 20260506124332 | 52 | 323 | 0.0 | 3.0 | 0.00 | 0.00 | 0.00 | 97 | 1016.2 |
| 20260506123325 | 52 | 323 | 0.0 | 0.0 | 0.00 | 0.00 | 0.00 | 98 | 1016.2 |
| 20260506122340 | 52 | 343 | 0.0 | 0.0 | 0.00 | 0.00 | 0.00 | 98 | 1016.2 |
| 20260506121349 | 52 | 343 | 0.0 | 0.0 | 0.00 | 0.00 | 0.00 | 98 | 1016.0 |
| 20260506120321 | 52 | 343 | 0.0 | 0.0 | 0.00 | 0.00 | 0.00 | 98 | 1016.0 |
| 20260506115332 | 52 | 343 | 0.0 | 0.0 | 0.00 | 0.00 | 0.00 | 98 | 1015.8 |
| 20260506114324 | 51 | 343 | 0.0 | 0.0 | 0.00 | 0.00 | 0.00 | 98 | 1015.7 |
| 20260506113337 | 51 | 343 | 0.0 | 0.0 | 0.00 | 0.00 | 0.00 | 98 | 1015.7 |
| 20260506112351 | 50 | 343 | 0.0 | 0.0 | 0.00 | 0.00 | 0.00 | 98 | 1015.6 |
| 20260506111340 | 50 | 343 | 0.0 | 0.0 | 0.00 | 0.00 | 0.00 | 97 | 1015.4 |
| 20260506110335 | 50 | 343 | 0.0 | 0.0 | 0.00 | 0.00 | 0.00 | 97 | 1015.4 |
| 20260506105347 | 50 | 343 | 0.0 | 0.0 | 0.00 | 0.00 | 0.00 | 97 | 1015.1 |
| 20260506104356 | 50 | 343 | 0.0 | 0.0 | 0.00 | 0.00 | 0.00 | 97 | 1015.1 |
| 20260506103326 | 51 | 343 | 0.0 | 0.0 | 0.00 | 0.00 | 0.00 | 97 | 1015.1 |
| 20260506102336 | 51 | 343 | 0.0 | 0.0 | 0.00 | 0.00 | 0.00 | 97 | 1015.1 |
| 20260506101330 | 50 | 343 | 0.0 | 0.0 | 0.00 | 0.00 | 0.00 | 96 | 1014.7 |
| 20260506100323 | 50 | 343 | 0.0 | 0.0 | 0.00 | 0.00 | 0.00 | 96 | 1014.7 |
| 20260506095317 | 51 | 343 | 0.0 | 0.0 | 0.00 | 0.00 | 0.00 | 96 | 1014.6 |
| 20260506094329 | 51 | 343 | 0.0 | 0.0 | 0.00 | 0.00 | 0.00 | 96 | 1014.6 |
| 20260506093319 | 51 | 343 | 0.0 | 0.0 | 0.00 | 0.00 | 0.00 | 95 | 1014.6 |
| 20260506092331 | 51 | 343 | 0.0 | 0.0 | 0.00 | 0.00 | 0.00 | 95 | 1014.5 |
| 20260506091323 | 51 | 343 | 0.0 | 0.0 | 0.00 | 0.00 | 0.00 | 95 | 1014.5 |
| 20260506090356 | 51 | 343 | 0.0 | 0.0 | 0.00 | 0.00 | 0.00 | 95 | 1014.5 |
| 20260506085324 | 52 | 343 | 0.0 | 0.0 | 0.00 | 0.00 | 0.00 | 95 | 1014.5 |
| 20260506084335 | 52 | 343 | 0.0 | 0.0 | 0.00 | 0.00 | 0.00 | 94 | 1014.4 |
| 20260506083325 | 52 | 343 | 0.0 | 0.0 | 0.00 | 0.00 | 0.00 | 94 | 1014.4 |
| 20260506082335 | 53 | 343 | 0.0 | 0.0 | 0.00 | 0.00 | 0.00 | 94 | 1014.3 |
| 20260506081327 | 53 | 343 | 0.0 | 0.0 | 0.00 | 0.00 | 0.00 | 94 | 1014.1 |
| 20260506080320 | 53 | 343 | 0.0 | 0.0 | 0.00 | 0.00 | 0.00 | 94 | 1014.1 |
| 20260506073343 | 54 | 343 | 0.0 | 0.0 | 0.00 | 0.00 | 0.00 | 93 | 1014.0 |
| 20260506072333 | 54 | 343 | 0.0 | 0.0 | 0.00 | 0.00 | 0.00 | 93 | 1013.8 |
| 20260506071325 | 55 | 343 | 0.0 | 0.0 | 0.00 | 0.00 | 0.00 | 92 | 1013.7 |
| 20260506070336 | 55 | 343 | 0.0 | 0.0 | 0.00 | 0.00 | 0.00 | 92 | 1013.7 |
| 20260506062332 | 56 | 343 | 0.0 | 0.0 | 0.00 | 0.00 | 0.00 | 90 | 1013.2 |
| 20260506061343 | 56 | 342 | 0.0 | 0.0 | 0.00 | 0.00 | 0.00 | 90 | 1013.0 |
| 20260506060333 | 57 | 342 | 0.0 | 0.0 | 0.00 | 0.00 | 0.00 | 90 | 1013.0 |
| 20260506051316 | 58 | 342 | 0.0 | 0.0 | 0.00 | 0.00 | 0.00 | 86 | 1012.5 |
| 20260506050328 | 59 | 342 | 0.0 | 0.0 | 0.00 | 0.00 | 0.00 | 85 | 1012.5 |
| 20260506044336 | 60 | 342 | 0.0 | 0.0 | 0.00 | 0.00 | 0.00 | 83 | 1012.0 |
| 20260506043329 | 61 | 342 | 0.0 | 0.0 | 0.00 | 0.00 | 0.00 | 81 | 1012.0 |
| 20260506042321 | 62 | 342 | 0.0 | 0.0 | 0.00 | 0.00 | 0.00 | 79 | 1011.9 |
| 20260506041355 | 62 | 342 | 0.0 | 0.0 | 0.00 | 0.00 | 0.00 | 76 | 1011.6 |
| 20260506040327 | 64 | 342 | 0.0 | 0.0 | 0.00 | 0.00 | 0.00 | 73 | 1011.6 |
| 20260506035339 | 65 | 342 | 0.0 | 0.0 | 0.00 | 0.00 | 0.00 | 70 | 1011.4 |
| 20260506034336 | 65 | 342 | 0.0 | 1.0 | 0.00 | 0.00 | 0.00 | 67 | 1011.0 |
| 20260506033327 | 66 | 20 | 0.0 | 1.0 | 0.00 | 0.00 | 0.00 | 64 | 1011.0 |
| 20260506032318 | 66 | 32 | 0.0 | 0.0 | 0.00 | 0.00 | 0.00 | 64 | 1010.9 |
| 20260506031331 | 67 | 32 | 0.0 | 1.0 | 0.00 | 0.00 | 0.00 | 64 | 1010.8 |
| 20260506030323 | 68 | 44 | 0.0 | 6.0 | 0.00 | 0.00 | 0.00 | 63 | 1010.8 |
| 20260506025335 | 69 | 63 | 0.0 | 4.0 | 0.00 | 0.00 | 0.00 | 64 | 1010.5 |
| 20260506024347 | 69 | 336 | 0.0 | 4.0 | 0.00 | 0.00 | 0.00 | 60 | 1010.4 |
| 20260506023318 | 70 | 355 | 0.0 | 5.0 | 0.00 | 0.00 | 0.00 | 59 | 1010.4 |
| 20260506022333 | 70 | 343 | 0.0 | 6.0 | 0.00 | 0.00 | 0.00 | 58 | 1010.4 |
| 20260506021346 | 71 | 26 | 0.0 | 7.0 | 0.00 | 0.00 | 0.00 | 61 | 1010.4 |
| 20260506020320 | 71 | 17 | 1.0 | 6.0 | 0.00 | 0.00 | 0.00 | 58 | 1010.4 |
| 20260506015331 | 73 | 345 | 1.0 | 6.0 | 0.00 | 0.00 | 0.00 | 56 | 1010.4 |